Spokane Fairchild, WA
on Thursday, November 29, 2012

Thursday
Previous Day Next Day
Daily Summary
 ActualAverage (KGEG)Record (KGEG)
Temperature
Mean Temperature °F 31°F  
Max Temperature 45°F 35°F 59°F (1907)
Min Temperature 28°F 26°F -8°F (1896)
Degree Days
Heating Degree Days 28 34  
Month to date heating degree days 844  
Since 1 July heating degree days 1632  
Cooling Degree Days 0 0  
Month to date cooling degree days 0  
Year to date cooling degree days 450  
Moisture
Dew Point 34°F   
Average Humidity 100    
Maximum Humidity 100    
Minimum Humidity 100    
Precipitation
Precipitation 0.02 in 0.08 in 0.92 in (1899)
Month to date precipitation 2.21  
Year to date precipitation 14.17  
Snow
Snow 0.00 in 0.40 in 6.20 in (1897)
Month to date snowfall 7.0  
Since 1 July snowfall 7.1  
Since 1 September snowfall 7.1  
Snow Depth in   
Wind
Wind Speed 4 mph   
Max Wind Speed 12 mph   
Max Gust Speed mph   
Visibility 4 miles   
Events Fog , Rain   

Key: T is trace of precipitation, MM is missing value
Source: NWS Daily Summary
Time(PST)TemperatureDew PointHumidity Pressure Visibility Wind DirectionWind SpeedGust SpeedPrecipitationEvents Conditions
12:16 AM 33.8°F 33.8°F 100% 29.83 in 10.0 miles South 3.5 mph - N/A   Overcast
12:21 AM 33.8°F 33.8°F 100% 29.83 in 10.0 miles South 4.6 mph - N/A   Overcast
12:41 AM 32.0°F 32.0°F 100% 29.83 in 10.0 miles South 5.8 mph - N/A   Overcast
12:45 AM 32.0°F 32.0°F 100% 29.83 in 10.0 miles SSW 8.1 mph - N/A   Overcast
12:50 AM 32.0°F 32.0°F 100% 29.83 in 8.0 miles South 10.4 mph - N/A   Overcast
12:58 AM 32.2°F 32.2°F 100% 29.90 in 6.0 miles South 5.8 mph - 0.00 in   Overcast
1:00 AM 32.0°F 32.0°F 100% 29.83 in 6.0 miles South 4.6 mph - N/A   Overcast
1:05 AM 32.0°F 32.0°F 100% 29.83 in 7.0 miles South 2.3 mph - N/A   Overcast
1:20 AM 32.0°F 32.0°F 100% 29.84 in 10.0 miles SSW 5.8 mph - N/A   Overcast
1:25 AM 32.0°F 32.0°F 100% 29.83 in 7.0 miles South 5.8 mph - N/A   Overcast
1:35 AM 32.0°F 32.0°F 100% 29.84 in 7.0 miles South 2.3 mph - N/A   Mostly Cloudy
1:45 AM 32.0°F 32.0°F 100% 29.84 in 5.0 miles SSE 4.6 mph - N/A   Overcast
1:50 AM 32.0°F 32.0°F 100% 29.84 in 4.0 miles South 4.6 mph - N/A   Overcast
1:55 AM 32.0°F 32.0°F 100% 29.84 in 3.0 miles South 3.5 mph - N/A   Overcast
1:58 AM 30.4°F 30.4°F 100% 29.91 in 3.0 miles South 5.8 mph - 0.00 in   Overcast
2:03 AM 32.0°F 32.0°F 100% 29.84 in 2.5 miles South 3.5 mph - N/A   Overcast
2:08 AM 32.0°F 32.0°F 100% 29.85 in 1.8 miles SW 2.3 mph - N/A   Overcast
2:13 AM 32.0°F 32.0°F 100% 29.84 in 1.2 miles SSE 2.3 mph - N/A   Overcast
2:18 AM 32.0°F 32.0°F 100% 29.84 in 1.0 miles Calm Calm - N/A   Mist
2:31 AM 32.0°F 32.0°F 100% 29.83 in 1.0 miles SE 3.5 mph - N/A   Mist
2:46 AM 32.0°F 32.0°F 100% 29.84 in 1.5 miles Calm Calm - N/A   Overcast
2:51 AM 32.0°F 32.0°F 100% 29.84 in 1.5 miles South 2.3 mph - N/A   Overcast
2:52 AM 32.0°F 32.0°F 100% 29.84 in 1.5 miles South 1.2 mph - N/A   Overcast
2:57 AM 30.2°F 30.2°F 100% 29.84 in 1.0 miles West 2.3 mph - N/A   Mist
2:58 AM 30.2°F 30.2°F 100% 29.91 in 1.0 miles WNW 1.2 mph - 0.00 in   Mist
3:08 AM 30.2°F 30.2°F 100% 29.84 in 1.2 miles West 2.3 mph - N/A   Overcast
3:15 AM 30.2°F 30.2°F 100% 29.84 in 1.2 miles NW 3.5 mph - N/A   Overcast
3:20 AM 30.2°F 30.2°F 100% 29.84 in 1.0 miles North 1.2 mph - N/A   Mist
3:24 AM 30.2°F 30.2°F 100% 29.84 in 0.8 miles NNW 2.3 mph - N/A   Mist
3:29 AM 30.2°F 30.2°F 100% 29.84 in 0.8 miles WNW 2.3 mph - N/A   Mist
3:39 AM 30.2°F 30.2°F 100% 29.84 in 1.0 miles West 3.5 mph - N/A   Mostly Cloudy
3:44 AM 28.4°F 28.4°F 100% 29.84 in 1.2 miles WNW 2.3 mph - N/A   Mostly Cloudy
3:54 AM 28.4°F 28.4°F 100% 29.84 in 1.5 miles West 1.2 mph - N/A   Scattered Clouds
3:58 AM 29.1°F 29.1°F 100% 29.91 in 1.8 miles WNW 2.3 mph - 0.00 in   Mostly Cloudy
4:08 AM 28.4°F 28.4°F 100% 29.85 in 1.5 miles WSW 2.3 mph - N/A   Mostly Cloudy
4:13 AM 30.2°F 30.2°F 100% 29.85 in 1.2 miles Calm Calm - N/A   Mostly Cloudy
4:18 AM 30.2°F 30.2°F 100% 29.84 in 1.0 miles North 1.2 mph - N/A   Mostly Cloudy
4:23 AM 30.2°F 30.2°F 100% 29.84 in 1.0 miles NE 2.3 mph - N/A   Mostly Cloudy
4:24 AM 30.2°F 30.2°F 100% 29.84 in 1.0 miles NE 1.2 mph - N/A   Mostly Cloudy
4:34 AM 30.2°F 30.2°F 100% 29.84 in 1.0 miles Calm Calm - N/A   Scattered Clouds
4:36 AM 30.2°F 30.2°F 100% 29.84 in 1.0 miles Calm Calm - N/A   Scattered Clouds
4:41 AM 30.2°F 30.2°F 100% 29.84 in 1.2 miles WNW 2.3 mph - N/A   Mostly Cloudy
4:45 AM 30.2°F 30.2°F 100% 29.83 in 1.5 miles WNW 3.5 mph - N/A   Mostly Cloudy
4:50 AM 30.2°F 30.2°F 100% 29.84 in 3.0 miles NW 3.5 mph - N/A   Mostly Cloudy
4:55 AM 32.0°F 32.0°F 100% 29.84 in 8.0 miles NW 3.5 mph - N/A   Mostly Cloudy
4:58 AM 30.4°F 30.4°F 100% 29.91 in 9.0 miles NNW 2.3 mph - 0.00 in   Mostly Cloudy
5:05 AM 32.0°F 32.0°F 100% 29.84 in 10.0 miles ENE 1.2 mph - N/A   Overcast
5:50 AM 32.0°F 32.0°F 100% 29.84 in 8.0 miles ENE 4.6 mph - N/A   Overcast
5:55 AM 32.0°F 32.0°F 100% 29.84 in 7.0 miles NE 4.6 mph - N/A   Overcast
5:58 AM 30.9°F 30.9°F 100% 29.91 in 7.0 miles ENE 4.6 mph - 0.00 in   Overcast
6:05 AM 32.0°F 32.0°F 100% 29.83 in 8.0 miles ENE 4.6 mph - N/A   Overcast
6:50 AM 32.0°F 32.0°F 100% 29.82 in 7.0 miles ENE 4.6 mph - N/A   Overcast
6:58 AM 31.3°F 31.3°F 100% 29.90 in 7.0 miles ENE 4.6 mph - 0.00 in   Overcast
7:10 AM 32.0°F 32.0°F 100% 29.81 in 5.0 miles NE 4.6 mph - N/A   Overcast
7:20 AM 32.0°F 32.0°F 100% 29.81 in 1.5 miles ENE 5.8 mph - N/A   Overcast
7:25 AM 32.0°F 32.0°F 100% 29.81 in 0.8 miles ENE 6.9 mph - N/A   Mostly Cloudy
7:30 AM 32.0°F 32.0°F 100% 29.81 in 0.5 miles ENE 6.9 mph - N/A Fog Light Freezing Fog
7:35 AM 32.0°F 32.0°F 100% 29.82 in 0.2 miles ENE 8.1 mph - N/A Fog Fog
7:45 AM 32.0°F 32.0°F 100% 29.81 in 0.5 miles ENE 6.9 mph - N/A Fog Fog
7:50 AM 32.0°F 32.0°F 100% 29.82 in 0.8 miles ENE 4.6 mph - N/A   Overcast
7:55 AM 32.0°F 32.0°F 100% 29.82 in 1.0 miles ENE 3.5 mph - N/A   Overcast
7:58 AM 32.0°F 32.0°F 100% 29.89 in 1.2 miles ENE 3.5 mph - N/A   Overcast
8:03 AM 32.0°F 32.0°F 100% 29.82 in 3.0 miles NE 3.5 mph - N/A   Overcast
8:08 AM 32.0°F 32.0°F 100% 29.81 in 3.0 miles NE 4.6 mph - N/A   Overcast
8:13 AM 32.0°F 32.0°F 100% 29.81 in 1.0 miles NE 5.8 mph - N/A   Overcast
8:18 AM 32.0°F 32.0°F 100% 29.81 in 0.5 miles ENE 6.9 mph - N/A Fog Fog
8:23 AM 32.0°F 32.0°F 100% 29.81 in 0.2 miles ENE 6.9 mph - N/A Fog Fog
8:25 AM 32.0°F 32.0°F 100% 29.81 in 0.2 miles ENE 5.8 mph - N/A Fog Fog
8:30 AM 32.0°F 32.0°F 100% 29.81 in 0.2 miles ENE 5.8 mph - N/A Fog Fog
8:31 AM 32.0°F 32.0°F 100% 29.81 in 0.2 miles ENE 4.6 mph - N/A Fog Fog
8:33 AM 32.0°F 32.0°F 100% 29.81 in 0.2 miles ENE 5.8 mph - N/A Fog Fog
8:47 AM 32.0°F 32.0°F 100% 29.81 in 0.2 miles NE 5.8 mph - N/A Fog Fog
8:49 AM 32.0°F 32.0°F 100% 29.81 in 0.2 miles NE 5.8 mph - N/A Fog Fog
8:58 AM 33.6°F 33.6°F 100% 29.88 in 0.2 miles NE 6.9 mph - 0.00 in Fog Fog
8:59 AM 33.8°F 33.8°F 100% 29.81 in 0.2 miles NE 5.8 mph - N/A Fog Fog
9:04 AM 33.8°F 33.8°F 100% 29.81 in 0.2 miles NE 5.8 mph - N/A Fog Fog
9:29 AM 33.8°F 33.8°F 100% 29.81 in 1.0 miles NNE 8.1 mph - N/A   Mist
9:39 AM 33.8°F 33.8°F 100% 29.80 in 0.8 miles NE 9.2 mph - N/A   Mist
9:44 AM 33.8°F 33.8°F 100% 29.80 in 0.5 miles NE 8.1 mph - N/A Fog Fog
9:58 AM 34.7°F 34.7°F 100% 29.85 in 0.5 miles NE 6.9 mph - 0.00 in Fog Fog
10:05 AM 35.6°F 35.6°F 100% 29.80 in 0.5 miles NE 8.1 mph - N/A Fog Fog
10:20 AM 35.6°F 35.6°F 100% 29.80 in 0.8 miles NE 8.1 mph - N/A   Mist
10:35 AM 35.6°F 35.6°F 100% 29.79 in 0.8 miles NE 8.1 mph - N/A   Mist
10:40 AM 35.6°F 35.6°F 100% 29.78 in 1.0 miles NE 10.4 mph - N/A   Mist
10:45 AM 35.6°F 35.6°F 100% 29.78 in 1.2 miles NE 11.5 mph - N/A   Mostly Cloudy
10:50 AM 35.6°F 35.6°F 100% 29.77 in 1.5 miles NE 10.4 mph - N/A   Mostly Cloudy
10:55 AM 35.6°F 35.6°F 100% 29.77 in 2.0 miles NE 9.2 mph - N/A   Mostly Cloudy
10:58 AM 35.6°F 35.6°F 100% 29.83 in 3.0 miles ENE 9.2 mph - 0.00 in   Mostly Cloudy
11:58 AM 38.3°F 38.3°F 100% 29.81 in 10.0 miles NNE 3.5 mph - N/A   Mostly Cloudy
12:05 PM 39.2°F 39.2°F 100% 29.74 in 10.0 miles NE 3.5 mph - N/A Rain Light Rain
12:58 PM 41.4°F 41.4°F 100% 29.81 in 10.0 miles NE 4.6 mph - 0.00 in Rain Light Rain
1:01 PM 41.0°F 41.0°F 100% 29.75 in 10.0 miles NE 4.6 mph - N/A   Overcast
1:58 PM 42.3°F 42.3°F 100% 29.77 in 10.0 miles ENE 8.1 mph - 0.00 in   Overcast
2:58 PM 42.6°F 42.6°F 100% 29.74 in 10.0 miles East 8.1 mph - N/A   Overcast
3:58 PM 45.0°F 45.0°F 100% 29.75 in 10.0 miles SSE 5.8 mph - N/A   Overcast
4:58 PM 44.4°F 44.4°F 100% 29.74 in 10.0 miles SSE 3.5 mph - N/A   Overcast
5:09 PM 44.6°F 44.6°F 100% 29.69 in 10.0 miles SSE 2.3 mph - N/A Rain Light Rain
5:58 PM 42.8°F 42.8°F 100% 29.75 in 10.0 miles North 5.8 mph - 0.01 in Rain Light Rain
6:58 PM 41.2°F 41.2°F 100% 29.74 in 10.0 miles NNE 4.6 mph - 0.00 in Rain Light Rain
7:58 PM 39.9°F 39.9°F 100% 29.72 in 10.0 miles East 5.8 mph - 0.00 in Rain Light Rain
8:41 PM 39.2°F 39.2°F 100% 29.67 in 10.0 miles North 3.5 mph - N/A   Overcast
8:49 PM 39.2°F 39.2°F 100% 29.67 in 10.0 miles North 2.3 mph - N/A Rain Light Rain
8:58 PM 40.1°F 40.1°F 100% 29.71 in 10.0 miles NNE 2.3 mph - 0.00 in Rain Light Rain
9:08 PM 39.2°F 39.2°F 100% 29.66 in 10.0 miles NE 3.5 mph - N/A   Overcast
9:10 PM 39.2°F 39.2°F 100% 29.66 in 10.0 miles ENE 3.5 mph - N/A Rain Light Rain
9:41 PM 41.0°F 41.0°F 100% 29.65 in 10.0 miles East 5.8 mph - N/A   Overcast
9:58 PM 41.0°F 41.0°F 100% 29.70 in 10.0 miles ENE 5.8 mph - 0.00 in   Overcast
10:34 PM 41.0°F 41.0°F 100% 29.64 in 10.0 miles East 6.9 mph - N/A Rain Light Rain
10:58 PM 41.4°F 41.4°F 100% 29.69 in 10.0 miles SE 5.8 mph - 0.01 in Rain Light Rain
11:36 PM 44.6°F 44.6°F 100% 29.63 in 10.0 miles SE 5.8 mph - N/A   Overcast
11:40 PM 42.8°F 42.8°F 100% 29.63 in 10.0 miles SSE 5.8 mph - N/A Rain Light Rain
11:58 PM 43.7°F 43.7°F 100% 29.65 in 10.0 miles SE 6.9 mph - 0.00 in Rain Light Rain
Moon Phase
Nov. 29 Dec. 06 Dec. 13 Dec. 20 Dec. 28
Sunrise:07:16 AM (PST) Moon Rise:05:08 PM (PST)11/29
Sunset:04:01 PM (PST) Moon Set:08:07 AM (PST)11/29

Copyright © 2014 The Weather Underground, Inc.